Evergreen, AL

9:19 PM CDT on March 23, 2017 (GMT -0500)
Middleton

Weather History for KGZH - June, 2013

Change the Weather History Date:

Wednesday, June 5, 2013

  Actual Average (KPRN) Record (KPRN)
Temperature  
Mean Temperature 78 °F -  
Max Temperature 90 °F 87 °F 104 °F (1936)
Min Temperature 69 °F 65 °F 53 °F (1954)
Cooling Degree Days 14    
Growing Degree Days 28 (Base 50)    
Moisture  
Dew Point 70 °F    
Average Humidity 80    
Maximum Humidity 94    
Minimum Humidity 57    
Precipitation  
Precipitation 0.51 in - - ()
Sea Level Pressure  
Sea Level Pressure 29.96 in    
Wind  
Wind Speed 4 mph (SE)    
Max Wind Speed 14 mph    
Max Gust Speed 25 mph    
Visibility 9 miles    
Events Rain , Thunderstorm    
Averages and records for this station are not official NWS values.
T = Trace of Precipitation, MM = Missing Value Source: NWS Daily Summary

Daily Weather History Graph

Daily Weather History Graph

Search for Another Location

Airport or City:

Trip Planner

Search our weather history database for the weather conditions in past years. The results will help you decide how hot, cold, wet, or windy it might be!

Date:

Astronomy

Jun. 05, 2013 Rise Set
Actual Time 5:43 AM CDT 7:50 PM CDT
Civil Twilight 5:15 AM CDT 8:18 PM CDT
Nautical Twilight 4:41 AM CDT 8:51 PM CDT
Astronomical Twilight 4:05 AM CDT 9:28 PM CDT
Moon 3:38 AM CDT (6/5) 5:23 PM CDT (6/5)
Length of Visible Light 15h 02m
Length of Day
14h 06m
Waning Crescent, 8% of the Moon is Illuminated
Jun 5
Waning Crescent
Jun 8
New
Jun 16
First Quarter
Jun 23
Full
Jun 29
Last Quarter

Hourly Weather History & Observations

Time (CDT) Temp. Heat Index Dew Point Humidity Pressure Visibility Wind Dir Wind Speed Gust Speed Precip Events Conditions
12:53 AM 73.9 °F - 71.1 °F 91% 29.97 in 10.0 mi South 3.5 mph - N/A   Clear
1:53 AM 73.9 °F - 72.0 °F 93% 29.96 in 10.0 mi SE 3.5 mph - N/A   Clear
2:21 AM 73.4 °F - 71.6 °F 94% 29.97 in 10.0 mi Calm Calm - N/A   Partly Cloudy
2:30 AM 73.4 °F - 71.6 °F 94% 29.97 in 10.0 mi Calm Calm - N/A   Mostly Cloudy
2:53 AM 73.9 °F - 71.1 °F 91% 29.96 in 10.0 mi Calm Calm - N/A   Overcast
3:00 AM 73.4 °F - 71.6 °F 94% 29.98 in 10.0 mi NE 3.5 mph - N/A   Overcast
3:40 AM 73.4 °F - 71.6 °F 94% 29.98 in 10.0 mi Calm Calm - N/A   Overcast
3:50 AM 73.4 °F - 71.6 °F 94% 29.98 in 10.0 mi Calm Calm - N/A   Overcast
3:53 AM 73.9 °F - 71.1 °F 91% 29.97 in 10.0 mi Calm Calm - N/A   Overcast
4:45 AM 75.2 °F - 71.6 °F 89% 29.99 in 10.0 mi East 4.6 mph - N/A   Overcast
4:53 AM 73.9 °F - 72.0 °F 93% 29.97 in 10.0 mi East 3.5 mph - N/A   Overcast
5:53 AM 73.9 °F - 72.0 °F 93% 29.99 in 10.0 mi East 5.8 mph - N/A   Overcast
6:46 AM 73.4 °F - 68.0 °F 83% 30.00 in 9.0 mi East 8.1 mph - 0.01 in Rain Light Rain
6:53 AM 73.0 °F - 68.0 °F 84% 29.99 in 10.0 mi East 9.2 mph - 0.01 in   Overcast
7:08 AM 73.4 °F - 68.0 °F 83% 30.00 in 10.0 mi ESE 4.6 mph - N/A   Mostly Cloudy
7:53 AM 75.9 °F - 69.1 °F 79% 29.95 in 10.0 mi SW 8.1 mph - N/A   Clear
8:53 AM 80.1 °F 83.6 °F 71.1 °F 74% 29.95 in 10.0 mi SSW 3.5 mph - N/A   Clear
9:53 AM 82.9 °F 87.5 °F 71.1 °F 67% 29.96 in 10.0 mi Calm Calm - N/A   Mostly Cloudy
10:28 AM 84.2 °F 89.6 °F 71.6 °F 66% 29.99 in 10.0 mi ESE 3.5 mph - N/A   Mostly Cloudy
10:53 AM 87.1 °F 92.8 °F 71.1 °F 59% 29.98 in 10.0 mi ESE 9.2 mph - N/A   Mostly Cloudy
11:53 AM 88.0 °F 94.7 °F 72.0 °F 59% 29.97 in 10.0 mi South 3.5 mph - N/A   Mostly Cloudy
12:53 PM 87.1 °F 93.6 °F 72.0 °F 61% 29.95 in 10.0 mi North 5.8 mph - N/A   Mostly Cloudy
1:53 PM 88.0 °F 93.8 °F 71.1 °F 57% 29.92 in 10.0 mi ENE 8.1 mph - N/A   Scattered Clouds
2:26 PM 80.6 °F 84.6 °F 71.6 °F 74% 29.93 in 10.0 mi SSE 13.8 mph 24.2 mph N/A   Mostly Cloudy
2:53 PM 82.9 °F 88.8 °F 73.0 °F 72% 29.91 in 10.0 mi SE 13.8 mph - N/A   Scattered Clouds
3:53 PM 86.0 °F 91.5 °F 71.1 °F 61% 29.88 in 10.0 mi SSE 11.5 mph - N/A   Clear
4:53 PM 84.0 °F 89.6 °F 72.0 °F 67% 29.88 in 10.0 mi SSE 9.2 mph - N/A   Clear
5:53 PM 84.9 °F 90.1 °F 71.1 °F 63% 29.88 in 10.0 mi South 9.2 mph - N/A   Partly Cloudy
6:53 PM 82.0 °F 85.9 °F 70.0 °F 67% 29.89 in 10.0 mi SSW 4.6 mph - N/A   Clear
7:53 PM 79.0 °F - 71.1 °F 77% 29.89 in 10.0 mi South 3.5 mph - N/A   Clear
8:53 PM 78.1 °F - 72.0 °F 81% 29.91 in 10.0 mi South 3.5 mph - N/A   Overcast
9:53 PM 78.1 °F - 72.0 °F 81% 29.94 in 10.0 mi Calm Calm - N/A   Overcast
10:41 PM 69.8 °F - 64.4 °F 83% 29.98 in 2.0 mi NW 9.2 mph 25.3 mph 0.16 in Rain Heavy Rain
10:48 PM 69.8 °F - 64.4 °F 83% 29.98 in 1.0 mi Variable 3.5 mph - 0.30 in Rain Heavy Rain
10:53 PM 69.1 °F - 64.9 °F 87% 29.98 in 1.8 mi Variable 3.5 mph - 0.32 in Rain Heavy Rain
11:01 PM 69.8 °F - 66.2 °F 88% 29.98 in 2.0 mi Variable 3.5 mph - 0.05 in Rain Heavy Rain
11:03 PM 69.8 °F - 64.4 °F 83% 29.98 in 1.8 mi SSW 5.8 mph - 0.09 in Rain , Thunderstorm Heavy Rain
11:16 PM 69.8 °F - 64.4 °F 83% 29.97 in 3.0 mi NE 3.5 mph - 0.17 in Rain , Thunderstorm Heavy Rain
11:23 PM 69.8 °F - 66.2 °F 88% 29.98 in 6.0 mi Calm Calm - 0.18 in Rain Light Rain
11:53 PM 69.1 °F - 66.0 °F 90% 29.95 in 10.0 mi South 3.5 mph - 0.18 in Rain Light Rain